Regional Weather Roundup
Issued by NWS New Orleans/Baton Rouge, LA

Home | Current Version | Previous Version | Text Only | Print | Product List | Glossary On
Versions: 1 2 3 4 5 6 7 8 9 10 11 12 13 14 15 16 17 18 19 20 21 22 23 24 25 26 27 28 29 30 31 32 33 34 35 36 37 38 39 40 41 42 43 44 45 46 47 48 49 50
000
ASUS44 KLIX 230711
RWRLIX
NEW ORLEANS REGIONAL WEATHER ROUNDUP
NATIONAL WEATHER SERVICE NEW ORLEANS LA
200 AM CDT SAT MAY 23 2015

NOTE: "FAIR" INDICATES FEW OR NO CLOUDS BELOW 12,000 FEET WITH NO
      SIGNIFICANT WEATHER AND/OR OBSTRUCTIONS TO VISIBILITY.
      SKY/WX - SKY CONDITION AND SIGNIFICANT WEATHER.
      TMP - AIR TEMPERATURE.     DP    - DEWPOINT TEMPERATURE.
      RH  - RELATIVE HUMIDITY.   PRES  - PRESSURE.
      HI  - HEAT INDEX.          WCI   - WIND CHILL INDEX.

*  THESE STATIONS ARE NOT NWS OR FAA STATIONS AND ARE NOT UNDER
   NWS QUALITY CONTROL.

LAZ038-040-048-061>063-065>067-069-230800-
SOUTHEAST LOUISIANA

CITY           SKY/WX    TMP DP  RH WIND       PRES   REMARKS
N.O. AUDUBON     N/A     75  69  81 MISG        N/A
N.O. INTL ARPT PTCLDY    73  67  81 SE3       30.15F
N.O. LAKEFRONT CLEAR     77  68  73 SE6       30.15F
SLIDELL        CLEAR     69  69 100 NE3       30.15F
BATON ROUGE    CLEAR     70  67  90 CALM      30.15F
BOOTHVILLE     CLEAR     75  71  87 E3        30.15F
BELLE CHASSE   CLEAR     69  66  90 CALM      30.14F
BOGALUSA*        N/A     68  64  88 CALM      30.18F
GALLIANO*      SUNNY     76  71  85 CALM      30.14F
NEW ROADS*       N/A     70  69  97 CALM      30.15F
GONZALES*        N/A     70  70 100 CALM      30.14F
HAMMOND*       CLEAR     72  66  83 CALM      30.17F
HOUMA*         CLEAR     71  70  94 CALM      30.14F
PORT FOURCHON* PTSUNNY   77  72  83 E9        30.14F

$$

MSZ070-080>082-230800-
SOUTHERN MISSISSIPPI

CITY           SKY/WX    TMP DP  RH WIND       PRES   REMARKS
MCCOMB         PTCLDY    67  63  87 E3        30.17F
GULFPORT       CLEAR     72  62  71 NE6       30.16F
BILOXI         PTCLDY    71  62  73 NE7       30.16F
PASCAGOULA     PTCLDY    69  61  75 NE5       30.17F

$$

COASTAL OBSERVATIONS
LAKE AND NEARSHORE STATIONS

STATION/POSITION TIME  TEMP    WIND        PRES    WAVE
                       AIR SEA DIR/SP/G            HT/PER
                 (UTC) (F)     (DEG/KT/KT) (MB)    (FT/S)
PASCAGOULA       0600   72      40/  5/  9 1021.4
WAVELAND YACHT   0600   74 78   80/  7/  9 1021.6
GRAND ISLE       0600   77 82   80/  8/ 12 1020.9
SOUTHWEST PASS   0600   79 74   80/ 12/ 14 1021.3
NEW CANAL        0600   74 82   CALM  /  3 1020.4
SHELL BEACH      0600   77 83   90/  6/  8 1020.6

OFFSHORE STATIONS

STATION/POSITION TIME  TEMP    WIND        PRES    WAVE
                       AIR SEA DIR/SP/G            HT/PER
                 (UTC) (F)     (DEG/KT/KT) (MB)    (FT/S)
64 S DAUPHIN ISL 0650   79 81   80/ 10/ 12 1020.9    1/ 5

$$




USA.gov is the U.S. government's official web portal to all federal, state and local government web resources and services.